TimeCST,TemperatureF,Dew PointF,Humidity,Sea Level PressureIn,VisibilityMPH,Wind Direction,Wind SpeedMPH,Gust SpeedMPH,PrecipitationIn,Events,Conditions,WindDirDegrees,DateUTC
12:15 AM,32.5,21.7,64,29.91,10.0,SSE,16.1,20.7,N/A,,Clear,150,2013-02-18 06:15:00
12:35 AM,32.7,21.7,64,29.90,10.0,SE,15.0,19.6,N/A,,Clear,140,2013-02-18 06:35:00
12:55 AM,32.5,21.9,65,29.90,10.0,SE,10.4,17.3,N/A,,Clear,140,2013-02-18 06:55:00
1:15 AM,32.4,21.9,65,29.89,10.0,SSE,9.2,-,N/A,,Clear,150,2013-02-18 07:15:00
1:35 AM,32.5,21.9,65,29.88,10.0,SE,8.1,-,N/A,,Clear,140,2013-02-18 07:35:00
1:55 AM,32.9,22.1,65,29.86,10.0,SE,10.4,-,N/A,,Clear,130,2013-02-18 07:55:00
2:15 AM,32.4,22.1,66,29.86,10.0,SE,9.2,-,N/A,,Clear,130,2013-02-18 08:15:00
2:35 AM,32.5,22.3,66,29.85,10.0,SE,9.2,17.3,N/A,,Clear,140,2013-02-18 08:35:00
2:55 AM,32.9,22.6,66,29.83,10.0,SE,13.8,18.4,N/A,,Clear,140,2013-02-18 08:55:00
3:15 AM,33.4,22.8,65,29.82,10.0,SE,11.5,-,N/A,,Clear,140,2013-02-18 09:15:00
3:35 AM,33.6,23.4,66,29.80,10.0,SE,11.5,-,N/A,,Clear,140,2013-02-18 09:35:00
3:55 AM,34.0,23.7,66,29.80,10.0,SE,9.2,17.3,N/A,,Clear,140,2013-02-18 09:55:00
4:15 AM,34.2,24.1,67,29.79,10.0,SE,13.8,-,N/A,,Clear,140,2013-02-18 10:15:00
4:35 AM,34.7,24.4,66,29.78,10.0,SSE,12.7,19.6,N/A,,Clear,150,2013-02-18 10:35:00
4:55 AM,34.5,24.8,68,29.78,10.0,SSE,10.4,-,N/A,,Clear,150,2013-02-18 10:55:00
5:15 AM,35.1,25.2,67,29.77,10.0,SSE,11.5,19.6,N/A,,Clear,150,2013-02-18 11:15:00
5:35 AM,35.1,25.5,68,29.76,10.0,SSE,13.8,17.3,N/A,,Clear,150,2013-02-18 11:35:00
5:55 AM,35.6,25.7,67,29.75,10.0,SSE,11.5,18.4,N/A,,Clear,160,2013-02-18 11:55:00
6:15 AM,35.6,26.4,69,29.74,10.0,South,10.4,17.3,N/A,,Clear,170,2013-02-18 12:15:00
6:35 AM,36.0,26.6,69,29.73,10.0,SSE,13.8,23.0,N/A,,Clear,160,2013-02-18 12:35:00
6:55 AM,36.0,27.3,71,29.73,10.0,SSE,13.8,20.7,N/A,,Clear,160,2013-02-18 12:55:00
7:15 AM,36.5,27.9,71,29.73,10.0,SSE,11.5,18.4,N/A,,Clear,160,2013-02-18 13:15:00
7:35 AM,37.2,28.4,70,29.72,10.0,SSE,10.4,18.4,N/A,,Clear,160,2013-02-18 13:35:00
7:55 AM,38.3,29.3,70,29.72,10.0,SSE,12.7,18.4,N/A,,Clear,160,2013-02-18 13:55:00
8:15 AM,39.4,30.0,69,29.72,10.0,SSE,13.8,19.6,N/A,,Clear,160,2013-02-18 14:15:00
8:35 AM,41.4,31.1,67,29.71,10.0,South,13.8,-,N/A,,Clear,170,2013-02-18 14:35:00
8:55 AM,43.2,31.8,64,29.70,10.0,SSE,16.1,21.9,N/A,,Clear,160,2013-02-18 14:55:00
9:15 AM,44.6,32.2,62,29.70,10.0,South,15.0,-,N/A,,Clear,170,2013-02-18 15:15:00
9:35 AM,47.1,33.8,60,29.69,10.0,South,13.8,19.6,N/A,,Clear,180,2013-02-18 15:35:00
9:55 AM,48.2,34.9,60,29.68,10.0,South,19.6,27.6,N/A,,Clear,180,2013-02-18 15:55:00
10:15 AM,48.7,35.6,60,29.68,10.0,South,16.1,28.8,N/A,,Clear,190,2013-02-18 16:15:00
10:35 AM,50.2,36.3,59,29.67,10.0,South,16.1,27.6,N/A,,Clear,190,2013-02-18 16:35:00
10:55 AM,50.5,36.9,59,29.67,10.0,South,21.9,28.8,N/A,,Clear,180,2013-02-18 16:55:00
11:15 AM,52.2,37.6,58,29.66,10.0,South,18.4,31.1,N/A,,Clear,190,2013-02-18 17:15:00
11:35 AM,53.4,38.3,57,29.65,10.0,South,16.1,28.8,N/A,,Clear,190,2013-02-18 17:35:00
11:55 AM,54.0,39.2,57,29.64,10.0,South,17.3,29.9,N/A,,Clear,180,2013-02-18 17:55:00
12:15 PM,53.1,39.2,59,29.63,10.0,South,18.4,28.8,N/A,,Scattered Clouds,180,2013-02-18 18:15:00
12:35 PM,52.5,39.6,61,29.62,10.0,South,16.1,25.3,N/A,,Scattered Clouds,180,2013-02-18 18:35:00
12:55 PM,52.0,40.1,64,29.61,10.0,South,10.4,-,N/A,,Mostly Cloudy,170,2013-02-18 18:55:00
1:15 PM,52.3,40.3,64,29.60,10.0,South,13.8,19.6,N/A,,Mostly Cloudy,170,2013-02-18 19:15:00
1:35 PM,52.2,41.7,68,29.59,10.0,South,10.4,-,N/A,Rain,Light Rain,170,2013-02-18 19:35:00
1:55 PM,51.3,43.2,74,29.58,10.0,South,12.7,20.7,N/A,Rain,Light Rain,170,2013-02-18 19:55:00
2:15 PM,51.1,43.9,76,29.57,10.0,South,12.7,18.4,N/A,Rain,Rain,170,2013-02-18 20:15:00
2:35 PM,50.4,44.8,81,29.57,7.0,South,13.8,20.7,N/A,,Light Drizzle,170,2013-02-18 20:35:00
2:55 PM,50.0,45.3,84,29.55,7.0,SSE,10.4,19.6,N/A,Rain,Light Rain,160,2013-02-18 20:55:00
3:15 PM,50.0,46.2,87,29.53,10.0,SSE,10.4,16.1,N/A,,Light Drizzle,160,2013-02-18 21:15:00
3:35 PM,49.8,45.5,85,29.52,10.0,SSE,9.2,-,N/A,,Mostly Cloudy,150,2013-02-18 21:35:00
3:55 PM,51.3,45.0,79,29.50,10.0,SSE,13.8,20.7,N/A,,Mostly Cloudy,160,2013-02-18 21:55:00
4:15 PM,50.7,45.1,81,29.50,10.0,SSE,18.4,26.5,N/A,Rain,Light Rain,160,2013-02-18 22:15:00
4:35 PM,49.5,45.1,85,29.48,10.0,SSE,17.3,26.5,N/A,Rain,Light Rain,150,2013-02-18 22:35:00
4:55 PM,49.1,44.6,84,29.47,10.0,SSE,16.1,28.8,N/A,Rain,Light Rain,160,2013-02-18 22:55:00
5:15 PM,48.4,44.6,87,29.46,10.0,SSE,18.4,27.6,N/A,,Scattered Clouds,160,2013-02-18 23:15:00
5:35 PM,48.2,44.8,88,29.46,10.0,SSE,25.3,29.9,N/A,,Light Drizzle,160,2013-02-18 23:35:00
5:55 PM,47.3,45.5,93,29.46,4.0,South,20.7,33.4,0.09,Rain,Rain,170,2013-02-18 23:55:00
6:15 PM,47.1,45.3,93,29.47,5.0,SSW,17.3,24.2,0.05,Rain,Heavy Rain,200,2013-02-19 00:15:00
6:35 PM,39.6,37.8,93,29.51,5.0,WNW,20.7,28.8,0.12,Rain,Rain,290,2013-02-19 00:35:00
6:55 PM,37.6,36.0,94,29.53,7.0,WNW,12.7,20.7,0.13,Rain,Light Rain,290,2013-02-19 00:55:00
7:15 PM,35.6,34.2,94,29.53,5.0,WNW,13.8,24.2,0.01,Rain,Light Rain,290,2013-02-19 01:15:00
7:35 PM,33.8,32.5,95,29.57,5.0,West,13.8,20.7,0.02,Snow,Light Snow,280,2013-02-19 01:35:00
7:55 PM,33.1,32.2,96,29.57,7.0,West,15.0,19.6,0.02,Rain,Light Rain,280,2013-02-19 01:55:00
8:15 PM,32.5,31.8,97,29.58,4.0,West,12.7,20.7,N/A,Snow,Light Snow,280,2013-02-19 02:15:00
8:35 PM,32.0,30.9,96,29.60,3.0,West,18.4,27.6,N/A,Snow,Light Snow,270,2013-02-19 02:35:00
8:55 PM,31.6,28.9,90,29.61,7.0,West,20.7,29.9,N/A,Rain,Freezing Rain,270,2013-02-19 02:55:00
9:15 PM,30.9,28.0,89,29.63,7.0,West,19.6,33.4,N/A,Snow,Light Snow,270,2013-02-19 03:15:00
9:35 PM,30.2,26.2,85,29.65,7.0,West,18.4,31.1,N/A,Snow,Light Snow,280,2013-02-19 03:35:00
9:55 PM,29.7,26.2,87,29.67,10.0,West,17.3,29.9,N/A,,Mostly Cloudy,270,2013-02-19 03:55:00
10:15 PM,28.2,24.1,84,29.70,10.0,WSW,18.4,29.9,N/A,,Mostly Cloudy,250,2013-02-19 04:15:00
10:35 PM,26.8,21.7,81,29.71,10.0,West,19.6,33.4,N/A,,Mostly Cloudy,260,2013-02-19 04:35:00
10:55 PM,25.5,20.3,81,29.72,10.0,West,16.1,29.9,N/A,,Mostly Cloudy,260,2013-02-19 04:55:00
11:15 PM,24.8,19.0,79,29.73,10.0,West,26.5,36.8,N/A,,Overcast,260,2013-02-19 05:15:00
11:35 PM,24.6,19.2,80,29.74,10.0,West,24.2,29.9,N/A,,Overcast,270,2013-02-19 05:35:00
11:55 PM,23.7,16.9,75,29.76,10.0,West,20.7,33.4,N/A,,Overcast,260,2013-02-19 05:55:00